Zurück zum Katalog

STARLINK-30972

AktivKommunikationVLEO
NORAD 58721·PAYLOAD·🇺🇸 United States

Gestartet Jan 3, 2024 von Vandenberg Space Force Base

Loading…

Nächste Überflüge (nächste 24 Stunden)

TLE

AktuellSource: CelesTrak SupGP

Epoche: Sep 15, 2026, 03:04 UTC

1 58721C 24002S   26258.12826389 -.00029026  00000+0 -85769-3 0  2589
2 58721  53.1588  68.6179 0001149  87.0513 103.2288 15.34401769    16

Verfolge STARLINK-30972 in Echtzeit mit AllMySat

Download on the App Store